sat.trackr.live / text

‹ back to catalog

HULIANWANG DIGUI-121

NORAD 67061 · 2025-295C

PAYLOAD ACTIVE UNKNOWN

§ Identity

Operator
Country
PRC
Launch date
2025-12-11
Launch site
WSC
Launch vehicle
Mass (kg)
RCS (m²)

External: N2YO · Heavens-Above · Gunter

§ Orbital elements

Epoch: 2026-09-20T13:13:15.945600Z

Period
108.33 min
Inclination
50.0012°
Eccentricity
0.0000742
Mean motion
13.29327070 rev/d
Perigee alt
1,148.7 km
Apogee alt
1,149.9 km
Semi-major
7,527.4 km
B*
1.3512e-5
RAAN
43.5979°
Arg perigee
80.7651°
Mean anomaly
279.3305°
Rev number
3,818

§ Raw data

HULIANWANG DIGUI-1211 67061U 25295C   26263.55087900 -.00000118  00000+0  13512-4 0  99922 67061  50.0012  43.5979 0000742  80.7651 279.3305 13.29327070 38180

JSON: /api/v1/satellites/67061 · /tle

For live sub-satellite position, see the globe view (requires WebGL).

§ Visibility from observer

Set your observer location to see the next 7 days of passes ≥ 10°. The values pass through the URL so the page stays shareable.

No JS? Fill the form by hand. The geolocation button needs JavaScript.